Rogers City, MI

9:21 AM EST on February 12, 2016 (GMT -0500)
Presque Isle County

Weather History for KPZQ - February, 2013

Change the Weather History Date:

Wednesday, February 27, 2013

  Actual Average (KAPN) Record (KAPN)
Temperature  
Mean Temperature 32 °F 23 °F  
Max Temperature 33 °F 32 °F 54 °F (2000)
Min Temperature 32 °F 13 °F -19 °F (2015)
Degree Days  
Heating Degree Days 33 42  
Month to date heating degree days 1206  
Since 1 July heating degree days 5688  
Moisture  
Dew Point 31 °F    
Average Humidity 93    
Maximum Humidity 96    
Minimum Humidity 83    
Precipitation  
Precipitation 0.00 in 0.05 in 1.09 in (1997)
Month to date precipitation 1.26  
Year to date precipitation 2.92  
Snow  
Snow 0.00 in 0.50 in 3.70 in (2013)
Month to date snowfall 16.9  
Since 1 July snowfall 65.5  
Snow Depth -    
Sea Level Pressure  
Sea Level Pressure 29.69 in    
Wind  
Wind Speed 15 mph (ENE)    
Max Wind Speed 20 mph    
Max Gust Speed 29 mph    
Visibility 4 miles    
Events Rain , Snow    
T = Trace of Precipitation, MM = Missing Value Source: NWS Daily Summary

Daily Weather History Graph

Daily Weather History Graph

Search for Another Location

Airport or City:

Trip Planner

Search our weather history database for the weather conditions in past years. The results will help you decide how hot, cold, wet, or windy it might be!

Date:

Astronomy

Feb. 27, 2013 Rise Set
Actual Time 7:16 AM EST 6:19 PM EST
Civil Twilight 6:46 AM EST 6:49 PM EST
Nautical Twilight 6:12 AM EST 7:23 PM EST
Astronomical Twilight 5:38 AM EST 7:58 PM EST
Moon 8:50 PM EST (2/27) 7:43 AM EST (2/27)
Length of Visible Light 12h 02m
Length of Day
11h 03m
Waning Gibbous, 96% of the Moon is Illuminated
Feb 27
Waning Gibbous
Mar 4
Last Quarter
Mar 11
New
Mar 19
First Quarter
Mar 27
Full

Hourly Weather History & Observations

Time (EST) Temp. Windchill Dew Point Humidity Pressure Visibility Wind Dir Wind Speed Gust Speed Precip Events Conditions
12:15 AM 32.4 °F 21.7 °F 28.0 °F 84% 29.80 in 10.0 mi ENE 16.1 mph 26.5 mph N/A   Overcast
12:35 AM 32.5 °F 21.9 °F 28.4 °F 85% 29.78 in 10.0 mi ENE 16.1 mph 21.9 mph N/A   Overcast
12:55 AM 32.7 °F 21.1 °F 28.2 °F 83% 29.78 in 4.0 mi East 19.6 mph 28.8 mph N/A Snow Light Snow
1:15 AM 32.0 °F 20.8 °F 29.3 °F 90% 29.77 in 1.8 mi ENE 17.3 mph 24.2 mph N/A Snow Light Snow
1:35 AM 32.0 °F 22.5 °F 29.5 °F 90% 29.77 in 1.8 mi ENE 12.7 mph 20.7 mph N/A Snow Light Snow
1:55 AM 32.0 °F 20.8 °F 30.0 °F 92% 29.75 in 2.0 mi ENE 17.3 mph 25.3 mph N/A Snow Light Snow
2:15 AM 32.0 °F 21.6 °F 30.2 °F 93% 29.74 in 2.0 mi ENE 15.0 mph 23.0 mph N/A Snow Light Snow
2:36 AM 32.0 °F 21.6 °F 30.2 °F 93% 29.74 in 1.2 mi ENE 15.0 mph 19.6 mph N/A Snow Light Snow
2:55 AM 32.0 °F 22.5 °F 30.2 °F 93% 29.73 in 2.0 mi ENE 12.7 mph 23.0 mph N/A Snow Light Snow
3:15 AM 32.0 °F 21.2 °F 30.4 °F 94% 29.72 in 1.5 mi ENE 16.1 mph 21.9 mph N/A Snow Light Snow
3:35 AM 32.0 °F 22.1 °F 30.7 °F 95% 29.71 in 1.5 mi ENE 13.8 mph 21.9 mph N/A Snow Light Snow
3:55 AM 32.0 °F 20.8 °F 30.9 °F 96% 29.71 in 1.0 mi ENE 17.3 mph 21.9 mph N/A Snow Light Snow
4:15 AM 32.0 °F 22.5 °F 30.9 °F 96% 29.70 in 1.2 mi ENE 12.7 mph 21.9 mph N/A Snow Light Snow
4:35 AM 32.0 °F 22.1 °F 31.1 °F 96% 29.69 in 0.8 mi ENE 13.8 mph 24.2 mph N/A Snow Snow
4:55 AM 32.0 °F 21.2 °F 31.1 °F 96% 29.69 in 1.0 mi ENE 16.1 mph 23.0 mph N/A Snow Snow
5:15 AM 32.0 °F 22.5 °F 31.1 °F 96% 29.69 in 1.2 mi ENE 12.7 mph 21.9 mph N/A Snow Light Snow
5:35 AM 32.0 °F 20.8 °F 31.1 °F 96% 29.69 in 1.5 mi ENE 17.3 mph 23.0 mph N/A Snow Light Snow
5:55 AM 32.0 °F 22.5 °F 31.1 °F 96% 29.69 in 1.8 mi ENE 12.7 mph 23.0 mph N/A Snow Light Snow
6:15 AM 32.0 °F 22.1 °F 31.1 °F 96% 29.69 in 2.0 mi ENE 13.8 mph 23.0 mph N/A Snow Light Snow
6:35 AM 32.0 °F 21.2 °F 31.1 °F 96% 29.69 in 1.8 mi ENE 16.1 mph 23.0 mph N/A Snow Light Snow
6:55 AM 32.0 °F 21.6 °F 30.9 °F 96% 29.69 in 1.5 mi ENE 15.0 mph 24.2 mph N/A Snow Light Snow
7:16 AM 32.0 °F 20.8 °F 30.9 °F 96% 29.69 in 1.2 mi ENE 17.3 mph 23.0 mph N/A Snow Light Snow
7:35 AM 32.0 °F 21.2 °F 30.9 °F 96% 29.69 in 0.8 mi ENE 16.1 mph 24.2 mph N/A Snow Light Snow
7:55 AM 32.0 °F 21.6 °F 31.1 °F 96% 29.69 in 1.5 mi ENE 15.0 mph 24.2 mph N/A Snow Light Snow
8:15 AM 32.0 °F 22.5 °F 30.9 °F 96% 29.70 in 1.0 mi ENE 12.7 mph 18.4 mph N/A Snow Light Snow
8:35 AM 32.0 °F 23.0 °F 30.9 °F 96% 29.70 in 1.2 mi ENE 11.5 mph 20.7 mph N/A Snow Light Snow
8:55 AM 32.0 °F 23.0 °F 30.9 °F 96% 29.70 in 1.5 mi ENE 11.5 mph 17.3 mph N/A Snow Light Snow
9:15 AM 32.0 °F 21.6 °F 30.9 °F 96% 29.70 in 1.2 mi ENE 15.0 mph 18.4 mph N/A Snow Light Snow
9:35 AM 32.0 °F 21.6 °F 30.6 °F 94% 29.69 in 1.5 mi ENE 15.0 mph 21.9 mph N/A Snow Light Snow
10:15 AM 32.0 °F 22.1 °F 30.6 °F 94% 29.69 in 3.0 mi ENE 13.8 mph 19.6 mph N/A Snow Light Snow
10:35 AM 32.0 °F 23.0 °F 30.2 °F 93% 29.68 in 2.0 mi ENE 11.5 mph 21.9 mph N/A Snow Light Snow
10:55 AM 32.0 °F 22.1 °F 30.2 °F 93% 29.68 in 1.8 mi ENE 13.8 mph 23.0 mph N/A Snow Light Snow
11:15 AM 32.0 °F 21.2 °F 30.2 °F 93% 29.68 in 1.8 mi ENE 16.1 mph 24.2 mph N/A Snow Light Snow
11:35 AM 32.0 °F 22.1 °F 30.6 °F 94% 29.68 in 2.0 mi ENE 13.8 mph 18.4 mph N/A Snow Light Snow
11:55 AM 32.0 °F 21.6 °F 30.7 °F 95% 29.68 in 1.5 mi ENE 15.0 mph 20.7 mph N/A Snow Light Snow
12:15 PM 32.2 °F 22.3 °F 30.9 °F 95% 29.68 in 1.5 mi ENE 13.8 mph 21.9 mph N/A Snow Light Snow
12:35 PM 32.4 °F 22.5 °F 30.9 °F 94% 29.68 in 2.0 mi ENE 13.8 mph 18.4 mph N/A Snow Light Snow
12:55 PM 32.4 °F 22.5 °F 30.9 °F 94% 29.68 in 7.0 mi ENE 13.8 mph 20.7 mph N/A   Overcast
1:15 PM 32.4 °F 22.5 °F 30.9 °F 94% 29.68 in 5.0 mi ENE 13.8 mph 19.6 mph N/A   Overcast
1:35 PM 32.5 °F 23.2 °F 30.9 °F 94% 29.67 in 7.0 mi ENE 12.7 mph 18.4 mph N/A   Overcast
1:55 PM 32.5 °F 23.7 °F 30.9 °F 94% 29.66 in 7.0 mi NE 11.5 mph 19.6 mph N/A   Overcast
2:15 PM 32.9 °F 23.7 °F 30.9 °F 92% 29.66 in 3.0 mi ENE 12.7 mph 18.4 mph N/A Snow Light Snow
2:35 PM 32.9 °F 23.2 °F 31.1 °F 93% 29.66 in 1.2 mi NE 13.8 mph 17.3 mph N/A Snow Light Snow
2:55 PM 32.9 °F 22.8 °F 31.1 °F 93% 29.66 in 2.0 mi ENE 15.0 mph 20.7 mph N/A Snow Light Snow
3:15 PM 32.9 °F 22.8 °F 30.9 °F 92% 29.66 in 4.0 mi ENE 15.0 mph 18.4 mph N/A   Overcast
3:35 PM 32.9 °F 22.4 °F 30.7 °F 92% 29.66 in 7.0 mi NE 16.1 mph 21.9 mph N/A   Overcast
3:55 PM 32.9 °F 22.8 °F 30.7 °F 92% 29.66 in 7.0 mi NE 15.0 mph 23.0 mph N/A   Overcast
4:15 PM 32.9 °F 22.4 °F 30.7 °F 92% 29.67 in 7.0 mi NE 16.1 mph 26.5 mph N/A   Overcast
4:35 PM 32.9 °F 22.4 °F 30.2 °F 90% 29.67 in 7.0 mi NE 16.1 mph 23.0 mph N/A   Overcast
4:56 PM 32.4 °F 22.1 °F 30.0 °F 91% 29.67 in 5.0 mi NE 15.0 mph 24.2 mph N/A   Overcast
5:15 PM 32.2 °F 21.1 °F 30.2 °F 92% 29.67 in 4.0 mi NE 17.3 mph 25.3 mph N/A Snow Light Snow
5:35 PM 32.2 °F 21.4 °F 30.2 °F 92% 29.68 in 5.0 mi NE 16.1 mph 25.3 mph N/A   Overcast
5:55 PM 32.2 °F 21.4 °F 30.6 °F 94% 29.68 in 4.0 mi NE 16.1 mph 21.9 mph N/A   Overcast
6:15 PM 32.4 °F 21.7 °F 30.4 °F 92% 29.69 in 4.0 mi NE 16.1 mph 23.0 mph N/A   Overcast
6:35 PM 32.4 °F 21.7 °F 30.4 °F 92% 29.69 in 5.0 mi NE 16.1 mph 21.9 mph N/A   Overcast
6:55 PM 32.4 °F 21.7 °F 30.4 °F 92% 29.70 in 5.0 mi NE 16.1 mph 21.9 mph N/A   Overcast
7:15 PM 32.4 °F 22.1 °F 30.2 °F 92% 29.70 in 5.0 mi NE 15.0 mph 24.2 mph N/A Snow Light Snow
7:35 PM 32.2 °F 21.8 °F 30.6 °F 94% 29.70 in 4.0 mi NE 15.0 mph 21.9 mph N/A   Overcast
7:55 PM 32.5 °F 22.3 °F 30.6 °F 92% 29.70 in 7.0 mi NE 15.0 mph 21.9 mph N/A   Overcast
8:13 PM 32.4 °F 21.7 °F 30.6 °F 93% 29.69 in 5.0 mi NE 16.1 mph 20.7 mph N/A   Overcast
8:35 PM 32.5 °F 23.7 °F 30.6 °F 92% 29.69 in 7.0 mi NE 11.5 mph 19.6 mph N/A   Overcast
8:55 PM 32.4 °F 22.5 °F 30.7 °F 94% 29.69 in 7.0 mi NE 13.8 mph 18.4 mph N/A Snow Light Snow
9:15 PM 32.4 °F 23.0 °F 30.7 °F 94% 29.69 in 7.0 mi NE 12.7 mph 17.3 mph N/A   Overcast
9:35 PM 32.4 °F 23.0 °F 30.9 °F 94% 29.69 in 7.0 mi NE 12.7 mph 19.6 mph N/A   Overcast
9:55 PM 32.4 °F 23.5 °F 30.9 °F 94% 29.69 in 5.0 mi NNE 11.5 mph 17.3 mph N/A   Overcast
10:15 PM 32.4 °F 24.0 °F 31.1 °F 95% 29.69 in 5.0 mi NNE 10.4 mph 16.1 mph N/A Snow Light Snow
10:35 PM 32.5 °F 24.2 °F 31.5 °F 96% 29.68 in 4.0 mi NNE 10.4 mph 17.3 mph N/A Snow Light Snow
10:55 PM 32.5 °F 23.2 °F 31.5 °F 96% 29.68 in 4.0 mi NNE 12.7 mph 17.3 mph N/A Snow Light Snow
11:15 PM 32.5 °F 23.7 °F 31.6 °F 96% 29.68 in 4.0 mi NNE 11.5 mph 17.3 mph N/A Rain Light Rain
11:35 PM 32.9 °F 24.1 °F 31.8 °F 96% 29.68 in 7.0 mi NNE 11.5 mph 19.6 mph N/A   Overcast
11:55 PM 33.3 °F 24.1 °F 31.5 °F 93% 29.67 in 7.0 mi NNE 12.7 mph 17.3 mph N/A   Overcast